Starlink 30769

operational
NORAD ID: 58138 Int'l Des: 2023-162 Owner: SPXS Country: US Constellation: starlink
LEOCIRCULAR

About Starlink 30769

Description loading...

Live Position

Loading 3D Globe...

Upcoming Passes

Altitude History

Altitude vs Time

uPlot chart will show altitude changes over time

Two-Line Element Set

1 58138U 23162W 25305.50592531 .00000199 00000-0 29787-4 0 9990
2 58138 43.0036 109.9505 0001303 267.6924 92.3769 15.02535321113014
Epoch: Nov 1, 2025 • Age: 11 hours

Current Status

Altitude 571.2 km
Velocity 7.58 km/s
Sub-Earth Point -42.24°S, 6.14°E
Launch Date Oct 22, 2023
Age 2 years
Type internet

Technical Details

Classification Payload
Mass 730.00 kg
Dry Mass 700.00 kg
Total Mass 730.00 kg
Length 0.30 m
Diameter 4.10 m
Span 29.00 m
Shape Box + pan
Manufacturer SPXS
Bus Type Starlink V2M
Phase Status In Orbit
Owner/State SPXS/US

Large Constellations

Loading constellations...